Location: Ernez
(36.4595°N, 29.8755°E)
Time: 23:19:27
(UTC+00:00)

Delta 2 Rocket - Visible Passes

Search period start: 15 February 2026 00:00
Search period end: 25 February 2026 00:00
Orbit: 347 x 470 km, 35.6° (Epoch: 15 February)

Date Brightness Start Highest point End Pass type
(mag) Time Alt. Az. Time Alt. Az. Time Alt. Az.
15 Feb 2.7 16:20:15 10° W 16:23:14 67° S 16:25:58 12° ESE visible
15 Feb 5.8 17:58:07 10° W 17:58:39 13° WSW 17:58:39 13° WSW visible
16 Feb 3.8 17:05:28 10° W 17:08:13 32° SSW 17:08:58 28° SSE visible
17 Feb 3.5 16:12:45 10° W 16:15:34 42° SSW 16:18:29 10° ESE visible
17 Feb 5.7 17:51:37 10° SW 17:51:57 11° SW 17:51:57 11° SW visible
18 Feb 5.0 16:58:12 10° WSW 17:00:11 16° SSW 17:02:13 10° SSE visible
